| time (UTC) | temp C | wind direction | speed KPH | gust KPH | rain 1hr cm | rain 24hr cm | rain mn cm | humidity % | barometer mb |
| 20260505153016 | 16 | 11 | 0.0 | 8.0 | 0.00 | 3.35 | 3.35 | 96 | 1012.8 |
| 20260505151515 | 16 | 27 | 1.6 | 6.4 | 0.00 | 3.35 | 3.35 | 96 | 1012.7 |
| 20260505124510 | 15 | 118 | 0.0 | 3.2 | 0.00 | 3.35 | 3.35 | 97 | 1013.0 |
| 20260505123011 | 15 | 194 | 0.0 | 6.4 | 0.00 | 3.35 | 3.35 | 97 | 1012.8 |
| 20260505121509 | 15 | 149 | 0.0 | 6.4 | 0.00 | 3.35 | 3.35 | 97 | 1012.6 |
| 20260505120007 | 15 | 124 | 0.0 | 4.8 | 0.00 | 3.35 | 3.35 | 97 | 1012.5 |
| 20260505114507 | 15 | 211 | 0.0 | 3.2 | 0.00 | 3.35 | 3.35 | 97 | 1012.5 |
| 20260505113006 | 15 | 153 | 0.0 | 6.4 | 0.00 | 3.35 | 3.35 | 97 | 1012.4 |
| 20260505111506 | 15 | 124 | 0.0 | 4.8 | 0.00 | 3.35 | 3.35 | 97 | 1012.3 |
| 20260505101503 | 15 | 125 | 1.6 | 8.0 | 0.03 | 3.33 | 3.33 | 97 | 1013.1 |
| 20260505100005 | 15 | 39 | 0.0 | 0.0 | 0.08 | 3.33 | 3.33 | 97 | 1013.3 |
| 20260505094700 | 15 | 143 | 0.0 | 0.0 | 0.13 | 3.33 | 3.33 | 97 | 1013.3 |
| 20260505093106 | 15 | 157 | 0.0 | 1.6 | 0.86 | 3.33 | 3.33 | 97 | 1013.3 |
| 20260505091558 | 14 | 113 | 0.0 | 3.2 | 0.99 | 3.30 | 3.30 | 96 | 1013.5 |
| 20260505090057 | 14 | 21 | 0.0 | 1.6 | 0.97 | 3.25 | 3.25 | 96 | 1013.6 |
| 20260505084557 | 14 | 23 | 0.0 | 3.2 | 0.91 | 3.17 | 3.17 | 96 | 1013.6 |
| 20260505083102 | 14 | 313 | 0.0 | 1.6 | 0.33 | 2.46 | 2.46 | 96 | 1014.3 |
| 20260505081557 | 14 | 355 | 0.0 | 1.6 | 1.57 | 2.31 | 2.31 | 96 | 1013.0 |
| 20260505080108 | 14 | 24 | 0.0 | 4.8 | 1.73 | 2.29 | 2.29 | 95 | 1013.3 |
| 20260505074552 | 15 | 54 | 0.0 | 4.8 | 1.96 | 2.26 | 2.26 | 95 | 1013.7 |
| 20260505073050 | 15 | 44 | 1.6 | 22.5 | 1.98 | 2.13 | 2.13 | 94 | 1014.0 |
| 20260505071547 | 15 | 322 | 0.0 | 8.0 | 0.61 | 0.71 | 0.71 | 94 | 1014.0 |
| 20260505070047 | 16 | 352 | 3.2 | 6.4 | 0.48 | 0.56 | 0.56 | 92 | 1013.2 |
| 20260505064543 | 16 | 34 | 0.0 | 1.6 | 0.30 | 0.30 | 0.30 | 90 | 1013.0 |
| 20260505063039 | 17 | 244 | 0.0 | 4.8 | 0.15 | 0.15 | 0.15 | 88 | 1014.6 |
| 20260505061534 | 17 | 139 | 3.2 | 8.0 | 0.13 | 0.13 | 0.13 | 82 | 1012.4 |
| 20260505060036 | 18 | 205 | 0.0 | 8.0 | 0.08 | 0.08 | 0.08 | 80 | 1013.5 |
| 20260505054525 | 19 | 113 | 0.0 | 6.4 | 0.00 | 0.00 | 0.00 | 73 | 1014.0 |
| 20260505053024 | 19 | 262 | 0.0 | 8.0 | 0.00 | 0.00 | 0.00 | 70 | 1014.1 |
| 20260505051521 | 19 | 139 | 1.6 | 6.4 | 0.00 | 0.00 | 0.00 | 70 | 1013.5 |
| 20260505041516 | 19 | 122 | 0.0 | 3.2 | 0.00 | 0.00 | 0.00 | 72 | 1013.7 |
| 20260505040015 | 19 | 135 | 0.0 | 9.7 | 0.00 | 0.00 | 0.00 | 72 | 1013.7 |
| 20260505034514 | 19 | 315 | 0.0 | 8.0 | 0.00 | 0.00 | 0.00 | 71 | 1014.1 |
| 20260505033014 | 20 | 188 | 0.0 | 4.8 | 0.00 | 0.00 | 0.00 | 71 | 1014.2 |
| 20260505031515 | 20 | 105 | 0.0 | 4.8 | 0.00 | 0.00 | 0.00 | 70 | 1014.1 |
| 20260505030012 | 20 | 131 | 0.0 | 6.4 | 0.00 | 0.00 | 0.00 | 70 | 1014.2 |
| 20260505024511 | 20 | 100 | 0.0 | 4.8 | 0.00 | 0.00 | 0.00 | 70 | 1014.2 |
| 20260505023011 | 20 | 139 | 0.0 | 6.4 | 0.00 | 0.00 | 0.00 | 70 | 1014.0 |
| 20260505021511 | 20 | 247 | 0.0 | 0.0 | 0.00 | 0.00 | 0.00 | 69 | 1014.0 |
| 20260505020012 | 20 | 247 | 0.0 | 1.6 | 0.00 | 0.00 | 0.00 | 68 | 1013.7 |
| 20260505014507 | 21 | 149 | 0.0 | 1.6 | 0.00 | 0.00 | 0.00 | 66 | 1013.5 |
| 20260505013106 | 21 | 256 | 0.0 | 4.8 | 0.00 | 0.00 | 0.00 | 66 | 1013.4 |
| 20260505011505 | 21 | 254 | 0.0 | 6.4 | 0.00 | 0.00 | 0.00 | 64 | 1013.2 |
| 20260505010003 | 22 | 235 | 1.6 | 9.7 | 0.00 | 0.00 | 0.00 | 63 | 1013.0 |
| 20260505004610 | 22 | 120 | 1.6 | 9.7 | 0.00 | 0.00 | 0.00 | 62 | 1012.9 |
| 20260505003058 | 22 | 240 | 1.6 | 8.0 | 0.00 | 0.00 | 0.00 | 61 | 1012.9 |
| 20260505001620 | 23 | 183 | 1.6 | 11.3 | 0.00 | 0.00 | 0.00 | 59 | 1012.8 |
| 20260505000108 | 23 | 165 | 1.6 | 11.3 | 0.00 | 0.00 | 0.00 | 58 | 1012.8 |
| 20260504234558 | 24 | 291 | 3.2 | 12.9 | 0.00 | 0.00 | 0.00 | 57 | 1012.8 |
| 20260504233110 | 24 | 217 | 3.2 | 11.3 | 0.00 | 0.00 | 0.00 | 55 | 1012.7 |
| 20260504231555 | 25 | 240 | 6.4 | 14.5 | 0.00 | 0.00 | 0.00 | 54 | 1012.7 |
| 20260504230056 | 25 | 288 | 3.2 | 16.1 | 0.00 | 0.00 | 0.00 | 54 | 1012.7 |
| 20260504224553 | 26 | 72 | 4.8 | 17.7 | 0.00 | 0.00 | 0.00 | 52 | 1012.7 |
| 20260504223052 | 26 | 92 | 4.8 | 14.5 | 0.00 | 0.00 | 0.00 | 52 | 1012.7 |
| 20260504221550 | 25 | 257 | 4.8 | 17.7 | 0.00 | 0.00 | 0.00 | 52 | 1012.6 |
| 20260504220049 | 26 | 269 | 1.6 | 19.3 | 0.00 | 0.00 | 0.00 | 53 | 1012.7 |
| 20260504214547 | 26 | 165 | 3.2 | 22.5 | 0.00 | 0.00 | 0.00 | 52 | 1013.2 |
| 20260504213049 | 26 | 118 | 3.2 | 16.1 | 0.00 | 0.00 | 0.00 | 51 | 1013.2 |
| 20260504211545 | 26 | 122 | 4.8 | 19.3 | 0.00 | 0.00 | 0.00 | 52 | 1013.3 |
| 20260504210043 | 25 | 290 | 6.4 | 20.9 | 0.00 | 0.00 | 0.00 | 52 | 1013.7 |
| 20260504204542 | 26 | 65 | 6.4 | 16.1 | 0.00 | 0.00 | 0.00 | 51 | 1013.6 |
| 20260504203046 | 26 | 302 | 4.8 | 17.7 | 0.00 | 0.00 | 0.00 | 53 | 1013.7 |
| 20260504201541 | 26 | 281 | 6.4 | 22.5 | 0.00 | 0.00 | 0.00 | 51 | 1013.9 |
| 20260504200037 | 26 | 127 | 4.8 | 24.1 | 0.00 | 0.00 | 0.00 | 53 | 1014.2 |
| 20260504194536 | 26 | 278 | 4.8 | 16.1 | 0.00 | 0.00 | 0.00 | 52 | 1014.2 |
| 20260504193034 | 26 | 63 | 4.8 | 19.3 | 0.00 | 0.00 | 0.00 | 53 | 1014.4 |
| 20260504191532 | 26 | 274 | 6.4 | 17.7 | 0.00 | 0.00 | 0.00 | 52 | 1014.8 |
| 20260504190030 | 26 | 254 | 6.4 | 16.1 | 0.00 | 0.00 | 0.00 | 52 | 1014.8 |
| 20260504184529 | 25 | 124 | 4.8 | 22.5 | 0.00 | 0.00 | 0.00 | 54 | 1014.8 |
| 20260504183027 | 25 | 210 | 4.8 | 17.7 | 0.00 | 0.00 | 0.00 | 54 | 1015.0 |
| 20260504181526 | 25 | 293 | 4.8 | 16.1 | 0.00 | 0.00 | 0.00 | 55 | 1015.1 |
| 20260504180022 | 25 | 111 | 6.4 | 16.1 | 0.00 | 0.00 | 0.00 | 55 | 1015.4 |
| 20260504174520 | 24 | 133 | 6.4 | 16.1 | 0.00 | 0.00 | 0.00 | 55 | 1015.6 |
| 20260504173021 | 24 | 109 | 3.2 | 14.5 | 0.00 | 0.00 | 0.00 | 55 | 1015.8 |
| 20260504171523 | 23 | 307 | 9.7 | 20.9 | 0.00 | 0.00 | 0.00 | 55 | 1016.0 |